Hourly Weather Smorodino

Today, 7 March, Sunday

Time Temperature Precipitation Wind Pressure Humidity
00:00 -16°C° 0 mm 3 mps 740 mmHg 91%
01:00 -17°C° 0 mm 4 mps 740 mmHg 91%
02:00 -17°C° 0 mm 4 mps 739 mmHg 91%
03:00 -16°C° 0 mm 4 mps 739 mmHg 93%
04:00 -16°C° 0 mm 4 mps 738 mmHg 92%
05:00 -15°C° 0 mm 5 mps 737 mmHg 91%
06:00 -16°C° 0 mm 6 mps 737 mmHg 90%
07:00 -15°C° 0 mm 7 mps 736 mmHg 89%
08:00 -13°C° 0 mm 8 mps 735 mmHg 88%
09:00 -13°C° 0 mm 10 mps 734 mmHg 87%
10:00 -12°C° 0.1 mm 10 mps 733 mmHg 88%
11:00 -11°C° 0.1 mm 11 mps 732 mmHg 88%
12:00 -9°C° 0.1 mm 11 mps 731 mmHg 89%
13:00 -9°C° 0.3 mm 11 mps 730 mmHg 90%
14:00 -8°C° 0.3 mm 11 mps 729 mmHg 91%
15:00 -8°C° 0 mm 10 mps 728 mmHg 93%
16:00 -7°C° 0.3 mm 10 mps 727 mmHg 93%
17:00 -7°C° 0.3 mm 10 mps 726 mmHg 93%
18:00 -6°C° 0.3 mm 9 mps 726 mmHg 93%
19:00 -6°C° 0.7 mm 8 mps 726 mmHg 92%
20:00 -7°C° 0.7 mm 7 mps 726 mmHg 92%
21:00 -7°C° 0.7 mm 5 mps 726 mmHg 92%
22:00 -8°C° 0.1 mm 5 mps 727 mmHg 88%
23:00 -10°C° 0.1 mm 5 mps 727 mmHg 85%

Tomorrow, 8 March, Monday

Time Temperature Precipitation Wind Pressure Humidity
00:00 -11°C° 0.1 mm 5 mps 728 mmHg 81%
01:00 -12°C° 0 mm 5 mps 728 mmHg 82%
02:00 -12°C° 0 mm 5 mps 728 mmHg 83%
03:00 -13°C° 0 mm 5 mps 728 mmHg 84%
04:00 -12°C° 0 mm 6 mps 728 mmHg 86%
05:00 -12°C° 0 mm 6 mps 728 mmHg 87%
06:00 -12°C° 0 mm 6 mps 728 mmHg 88%
07:00 -12°C° 0 mm 7 mps 728 mmHg 89%
08:00 -12°C° 0 mm 7 mps 728 mmHg 89%
09:00 -11°C° 0 mm 8 mps 728 mmHg 90%
10:00 -11°C° 0.1 mm 8 mps 729 mmHg 87%
11:00 -11°C° 0.1 mm 8 mps 729 mmHg 84%
12:00 -11°C° 0.1 mm 8 mps 730 mmHg 81%
13:00 -11°C° 0 mm 7 mps 730 mmHg 81%
14:00 -10°C° 0 mm 6 mps 731 mmHg 82%
15:00 -10°C° 0 mm 5 mps 732 mmHg 82%
16:00 -10°C° 0 mm 4 mps 732 mmHg 84%
17:00 -11°C° 0 mm 4 mps 733 mmHg 86%
18:00 -12°C° 0 mm 3 mps 733 mmHg 88%
19:00 -12°C° 0 mm 2 mps 734 mmHg 89%
20:00 -12°C° 0 mm 2 mps 734 mmHg 90%
21:00 -13°C° 0 mm 2 mps 735 mmHg 91%
22:00 -13°C° 0 mm 2 mps 735 mmHg 92%
23:00 -13°C° 0 mm 2 mps 735 mmHg 93%

Day after tomorrow, 9 March, Tuesday

Time Temperature Precipitation Wind Pressure Humidity
00:00 -14°C° 0 mm 2 mps 735 mmHg 94%
01:00 -14°C° 0 mm 2 mps 736 mmHg 94%
02:00 -14°C° 0 mm 2 mps 736 mmHg 95%
03:00 -15°C° 0 mm 2 mps 737 mmHg 95%
04:00 -17°C° 0 mm 3 mps 737 mmHg 95%
05:00 -17°C° 0 mm 3 mps 737 mmHg 96%
06:00 -18°C° 0 mm 3 mps 737 mmHg 96%
07:00 -18°C° 0 mm 3 mps 738 mmHg 95%
08:00 -18°C° 0 mm 3 mps 738 mmHg 95%
09:00 -19°C° 0 mm 4 mps 739 mmHg 95%
10:00 -18°C° 0 mm 4 mps 739 mmHg 93%
11:00 -17°C° 0 mm 4 mps 740 mmHg 91%
12:00 -17°C° 0 mm 4 mps 740 mmHg 90%
13:00 -16°C° 0 mm 4 mps 740 mmHg 88%
14:00 -16°C° 0 mm 4 mps 741 mmHg 87%
15:00 -15°C° 0 mm 4 mps 741 mmHg 86%
16:00 -16°C° 0 mm 4 mps 741 mmHg 88%
17:00 -16°C° 0 mm 3 mps 742 mmHg 90%
18:00 -16°C° 0 mm 3 mps 742 mmHg 92%
19:00 -17°C° 0 mm 3 mps 742 mmHg 93%
20:00 -18°C° 0 mm 3 mps 743 mmHg 93%
21:00 -19°C° 0 mm 3 mps 744 mmHg 94%
22:00 -21°C° 0 mm 3 mps 744 mmHg 95%
23:00 -20°C° 0 mm 2 mps 744 mmHg 96%

10 March, Wednesday

Time Temperature Precipitation Wind Pressure Humidity
00:00 -21°C° 0 mm 2 mps 744 mmHg 97%
01:00 -23°C° 0 mm 2 mps 745 mmHg 97%
02:00 -24°C° 0 mm 2 mps 745 mmHg 97%
03:00 -24°C° 0 mm 2 mps 745 mmHg 98%
04:00 -25°C° 0 mm 2 mps 745 mmHg 97%
05:00 -26°C° 0 mm 2 mps 746 mmHg 97%
06:00 -26°C° 0 mm 2 mps 746 mmHg 96%
07:00 -25°C° 0 mm 2 mps 746 mmHg 95%
08:00 -25°C° 0 mm 2 mps 747 mmHg 94%
09:00 -24°C° 0 mm 2 mps 747 mmHg 93%
10:00 -23°C° 0 mm 2 mps 747 mmHg 90%
11:00 -21°C° 0 mm 2 mps 747 mmHg 87%
12:00 -20°C° 0 mm 2 mps 747 mmHg 84%
13:00 -19°C° 0 mm 2 mps 747 mmHg 83%
14:00 -18°C° 0 mm 2 mps 748 mmHg 81%
15:00 -18°C° 0 mm 2 mps 748 mmHg 80%
16:00 -19°C° 0 mm 2 mps 747 mmHg 83%
17:00 -20°C° 0 mm 2 mps 747 mmHg 86%
18:00 -19°C° 0 mm 1 mps 747 mmHg 90%
19:00 -20°C° 0 mm 1 mps 748 mmHg 90%
20:00 -24°C° 0 mm 2 mps 748 mmHg 90%
21:00 -25°C° 0 mm 2 mps 748 mmHg 90%
22:00 -25°C° 0 mm 2 mps 749 mmHg 90%
23:00 -22°C° 0 mm 1 mps 749 mmHg 91%

11 March, Thursday

Time Temperature Precipitation Wind Pressure Humidity
00:00 -23°C° 0 mm 1 mps 749 mmHg 91%
01:00 -23°C° 0 mm 1 mps 750 mmHg 92%
02:00 -24°C° 0 mm 1 mps 750 mmHg 93%
03:00 -24°C° 0 mm 1 mps 750 mmHg 94%
04:00 -24°C° 0 mm 1 mps 750 mmHg 94%
05:00 -24°C° 0 mm 1 mps 750 mmHg 94%
06:00 -25°C° 0 mm 0 mps 751 mmHg 94%
07:00 -23°C° 0 mm 1 mps 751 mmHg 92%
08:00 -22°C° 0 mm 1 mps 751 mmHg 90%
09:00 -21°C° 0 mm 1 mps 752 mmHg 89%
10:00 -19°C° 0 mm 1 mps 752 mmHg 85%
11:00 -18°C° 0 mm 1 mps 752 mmHg 82%
12:00 -16°C° 0 mm 1 mps 752 mmHg 78%
13:00 -16°C° 0 mm 1 mps 752 mmHg 77%
14:00 -15°C° 0 mm 1 mps 752 mmHg 76%
15:00 -14°C° 0 mm 1 mps 752 mmHg 75%
16:00 -16°C° 0 mm 1 mps 752 mmHg 79%
17:00 -17°C° 0 mm 1 mps 752 mmHg 82%
18:00 -20°C° 0 mm 2 mps 751 mmHg 86%
19:00 -21°C° 0 mm 2 mps 752 mmHg 86%
20:00 -23°C° 0 mm 2 mps 752 mmHg 86%
21:00 -24°C° 0 mm 2 mps 752 mmHg 86%
22:00 -24°C° 0 mm 2 mps 752 mmHg 87%
23:00 -25°C° 0 mm 3 mps 752 mmHg 87%

12 March, Friday

Time Temperature Precipitation Wind Pressure Humidity
00:00 -25°C° 0 mm 3 mps 752 mmHg 88%
01:00 -26°C° 0 mm 3 mps 752 mmHg 88%
02:00 -26°C° 0 mm 3 mps 752 mmHg 88%
03:00 -26°C° 0 mm 3 mps 751 mmHg 88%
04:00 -27°C° 0 mm 4 mps 751 mmHg 86%
05:00 -27°C° 0 mm 4 mps 751 mmHg 84%
06:00 -27°C° 0 mm 4 mps 751 mmHg 82%
07:00 -26°C° 0 mm 5 mps 750 mmHg 83%
08:00 -25°C° 0 mm 5 mps 750 mmHg 83%
09:00 -23°C° 0 mm 6 mps 750 mmHg 84%
10:00 -21°C° 0 mm 6 mps 749 mmHg 84%
11:00 -19°C° 0 mm 7 mps 749 mmHg 85%
12:00 -18°C° 0 mm 7 mps 749 mmHg 85%
13:00 -17°C° 0 mm 7 mps 748 mmHg 85%
14:00 -16°C° 0 mm 8 mps 748 mmHg 84%
15:00 -15°C° 0 mm 8 mps 747 mmHg 84%
16:00 -13°C° 0 mm 8 mps 746 mmHg 83%
17:00 -13°C° 0 mm 8 mps 746 mmHg 83%
18:00 -14°C° 0 mm 9 mps 745 mmHg 82%
19:00 -14°C° 0 mm 9 mps 745 mmHg 83%
20:00 -14°C° 0 mm 9 mps 744 mmHg 84%
21:00 -14°C° 0 mm 10 mps 744 mmHg 85%
22:00 -13°C° 0.1 mm 10 mps 743 mmHg 87%
23:00 -13°C° 0.1 mm 10 mps 743 mmHg 89%
Show more